Stationsdaten Golfplatz Weißenbach/Liezen

(AVE) = Mittelwert, (MAX) = Spitzenwert der Windgeschwindigkeit in m/s

LT1(AVE) = Mittelw. der Luft-Temp.(Rotronic), LT2(AVE) = Mittelw. der Luft-Temp.(YSI), RH(AVE) = Mittelw. Rel. Feuchte

DATUM ZEIT WiGe(MAX) Regen(T2) Ref(AVE) WiRi(AVE) LT1(AVE) RH(AVE) LT2(AVE) WiGe(AVE)
--- -- m/s mm V Grad GradC % GradC m/s
21.07.2016 18:00 2,0 0,0 2,471 355 25,6 58 25,7 0,8
21.07.2016 18:30 1,9 0,0 2,471 6 23,4 62 23,6 0,8
21.07.2016 19:00 2,5 0,0 2,471 37 22,4 68 22,6 0,7
21.07.2016 19:30 1,9 0,0 2,471 300 21,6 72 21,8 0,6
21.07.2016 20:00 4,1 0,0 2,471 229 21,3 73 21,3 1,4
21.07.2016 20:30 7,2 0,0 2,471 255 20,1 79 20,5 2,4
21.07.2016 21:00 5,7 0,0 2,471 289 18,6 88 19,1 2,3
21.07.2016 21:30 2,9 0,0 2,471 238 18,1 90 18,7 1,3
21.07.2016 22:00 3,4 0,0 2,471 242 17,6 92 18,1 1,4
21.07.2016 22:30 3,1 0,0 2,471 242 17,2 93 17,8 1,4
21.07.2016 23:00 2,2 0,0 2,471 254 16,5 95 17,1 1,3
21.07.2016 23:30 1,6 0,0 2,471 265 16,3 95 16,6 0,7
22.07.2016 00:00 1,2 0,0 2,472 315 15,9 95 16,2 0,6
22.07.2016 00:30 1,2 0,0 2,473 230 15,5 97 15,8 0,6
22.07.2016 01:00 1,6 0,0 2,473 229 15,2 98 15,4 0,8
22.07.2016 01:30 1,4 0,0 2,472 248 14,8 99 15,1 0,5
22.07.2016 02:00 1,6 0,0 2,472 219 14,7 99 14,9 0,6
22.07.2016 02:30 1,0 0,0 2,472 36 14,3 99 14,8 0,5
22.07.2016 03:00 1,1 0,0 2,472 243 14,1 99 14,8 0,5
22.07.2016 03:30 1,2 0,0 2,472 261 14,3 99 14,9 0,5
22.07.2016 04:00 1,9 0,0 2,472 309 14,2 98 14,7 0,6
22.07.2016 04:30 1,8 0,0 2,472 221 14,4 98 15,0 0,7
22.07.2016 05:00 2,3 0,0 2,472 203 14,4 97 15,1 1,0
22.07.2016 05:30 2,0 0,0 2,472 196 14,1 97 15,0 0,8
22.07.2016 06:00 1,3 0,0 2,472 187 14,4 97 15,4 0,7
22.07.2016 06:30 2,3 0,0 2,472 289 15,2 95 15,8 0,9
22.07.2016 07:00 3,7 0,0 2,472 268 16,4 89 17,4 1,5
22.07.2016 07:30 3,6 0,0 2,472 264 16,9 85 18,1 1,7
22.07.2016 08:00 3,1 0,0 2,472 253 17,6 81 19,3 1,6
22.07.2016 08:30 2,5 0,0 2,472 208 18,6 77 19,8 1,0
22.07.2016 09:00 1,9 0,0 2,472 96 19,9 72 20,4 0,9
22.07.2016 09:30 2,2 0,0 2,472 26 20,9 68 20,7 1,0
22.07.2016 10:00 2,1 0,0 2,472 243 21,2 68 21,8 1,0
22.07.2016 10:30 1,8 0,0 2,472 343 22,5 63 22,2 1,0
22.07.2016 11:00 2,0 0,0 2,472 67 23,8 58 23,6 1,0
22.07.2016 11:30 2,3 0,0 2,472 48 24,7 56 24,4 1,1
22.07.2016 12:00 2,6 0,0 2,472 77 26,0 50 25,7 1,0
22.07.2016 12:30 2,2 0,0 2,471 10 26,9 46 26,5 1,0
22.07.2016 13:00 2,3 0,0 2,471 148 27,3 43 27,9 1,1
22.07.2016 13:30 2,5 0,0 2,471 133 27,7 42 28,2 1,1
22.07.2016 14:00 3,7 0,0 2,471 82 28,0 44 28,1 1,5
22.07.2016 14:30 3,5 0,0 2,471 107 28,0 44 29,0 1,6
22.07.2016 15:00 4,1 0,0 2,471 76 28,0 47 28,4 1,8
22.07.2016 15:30 4,8 0,0 2,471 78 28,0 50 28,3 1,9
22.07.2016 16:00 6,0 0,0 2,471 67 27,3 53 27,8 2,0
22.07.2016 16:30 4,3 0,0 2,471 78 26,8 54 27,3 1,9
22.07.2016 17:00 4,4 0,0 2,471 93 26,0 57 26,6 1,8
22.07.2016 17:30 3,4 0,0 2,471 108 24,9 62 25,4 1,5
22.07.2016 18:00 9,6 0,0 2,471 173 23,6 68 24,3 2,3